GFSCGP_prec_cloud_276.txt.gz
Cloud_Cover
1 5 0 0 0 0 0 2 4 0 2 30 4 4 0 12 5 5 5 0 5 8 74 96 97 98 85 95 100 100 80 98 100 100 79 0 0 2 56 22 100 100 98 94
5 5 0 0 0 0 0 0 0 0 5 25 4 0 4 47 60 5 4 3 29 78 89 95 96 100 83 86 99 100 97 100 100 100 100 100 78 8 0 45 100 100 100 90
5 5 0 0 0 0 0 0 0 2 5 0 5 4 5 39 73 62 5 4 5 23 96 96 98 100 100 100 100 100 100 100 100 100 100 100 83 4 0 0 100 100 100 100
5 5 3 0 0 0 0 0 0 5 26 3 15 4 23 20 5 62 6 5 5 8 99 98 100 100 100 100 100 100 100 100 100 100 100 100 100 89 15 5 46 100 100 99
6 5 0 0 0 0 0 0 0 4 84 96 89 99 4 61 29 7 5 5 5 60 92 97 100 100 100 100 100 100 100 100 100 100 100 100 100 100 99 100 100 50 45 90
5 0 0 0 0 0 0 0 3 95 92 91 5 30 5 34 87 15 5 5 5 95 99 100 100 100 100 100 100 100 100 100 100 100 100 100 100 100 100 76 99 90 79 100
5 4 0 0 0 0 0 2 5 32 39 3 27 45 67 94 99 83 54 5 35 100 100 100 100 100 100 100 100 100 100 100 100 100 100 100 100 100 100 100 100 99 99 100
5 5 5 0 0 3 5 3 3 19 5 2 4 24 56 100 100 100 99 40 86 100 100 100 100 100 100 100 100 100 100 100 100 100 100 100 100 100 100 100 100 100 100 100
5 5 3 5 0 1 5 22 8 28 40 99 2 4 6 100 100 100 100 78 100 100 100 100 100 100 100 100 100 100 100 100 100 100 100 100 100 100 100 100 100 100 100 100
36 5 4 4 2 1 3 5 87 88 93 48 0 3 65 100 100 100 87 100 100 100 100 100 100 100 100 100 100 100 100 100 100 100 100 100 100 100 100 100 100 100 100 100
96 11 5 4 5 2 6 21 29 63 55 100 85 12 5 98 100 97 100 100 100 100 100 100 100 100 100 100 100 100 100 100 100 100 100 100 100 100 100 100 100 100 100 100
86 7 5 4 5 4 5 17 6 69 99 100 98 19 67 42 100 100 100 100 100 100 100 100 100 100 100 100 100 100 100 100 100 100 100 100 100 100 100 100 100 100 100 100
55 25 57 5 40 24 87 81 14 59 72 89 99 32 71 83 98 96 100 100 100 90 100 100 100 100 100 100 100 100 100 100 100 100 100 100 100 100 100 100 100 100 100 100
93 76 54 4 1 3 5 92 88 40 94 54 34 3 11 11 91 54 82 100 96 100 100 100 100 100 100 100 100 100 100 100 100 100 100 100 100 100 100 100 100 100 100 100
94 89 20 5 64 30 9 6 90 100 5 35 4 5 5 5 80 100 83 100 97 95 98 100 100 100 100 100 100 100 100 100 100 100 100 100 100 100 100 100 100 100 100 100
61 100 85 45 77 98 99 76 100 100 92 10 17 19 0 5 55 100 41 87 100 100 100 100 100 100 100 100 100 100 100 100 100 100 100 100 100 100 100 100 100 100 100 100
100 100 96 4 6 4 2 2 59 26 14 5 4 1 5 5 5 84 69 62 92 98 100 100 100 100 100 100 100 100 100 100 100 100 100 100 100 100 100 100 100 100 100 100
100 100 100 9 50 0 0 4 4 4 5 5 5 5 5 5 5 5 100 16 23 55 87 99 100 100 100 100 100 100 100 100 100 100 100 100 100 100 100 100 100 100 100 100
100 100 100 15 5 0 0 14 47 2 0 1 3 5 5 5 20 5 7 100 86 5 11 50 71 98 100 100 96 100 100 100 100 100 100 100 100 100 100 100 100 100 100 100
100 100 100 92 6 4 0 0 5 2 1 5 2 5 5 4 0 0 5 5 26 14 91 15 5 31 81 99 100 100 100 62 92 99 100 100 100 100 100 100 100 100 99 95
100 100 100 98 9 4 1 0 0 0 1 5 1 2 5 0 0 1 2 2 3 56 93 98 98 63 56 55 58 57 74 95 100 40 98 100 87 62 68 74 57 81 30 7
100 100 100 92 84 5 4 2 0 1 4 1 1 5 5 1 1 2 0 0 0 0 2 6 26 66 100 99 96 65 69 46 67 71 56 55 62 95 100 95 100 100 100 93
100 100 100 100 6 5 5 3 2 0 1 5 0 1 1 0 0 0 0 0 0 0 0 0 0 0 0 0 0 1 6 19 60 98 100 99 100 96 93 100 100 100 99 94
100 100 100 100 53 5 5 5 5 5 0 0 0 0 0 0 0 3 5 4 0 0 0 0 0 0 0 0 0 0 0 5 5 5 5 5 5 5 5 0 3 0 3 4
100 100 100 100 82 6 39 34 5 4 1 0 0 3 5 5 5 2 5 5 5 5 5 2 0 1 0 0 0 1 5 5 5 5 5 5 4 3 3 1 0 0 0 0
100 100 100 100 45 20 30 18 5 2 1 0 5 5 16 5 7 5 42 5 6 5 5 5 5 5 5 5 5 5 5 5 5 5 5 5 5 5 4 4 4 13 29 15

GFSCGP_prec_cloud_279.txt.gz
Cloud_Cover
5 81 100 84 5 5 1 0 0 0 0 0 0 0 0 0 3 5 5 5 1 0 0 8 79 96 94 100 100 98 100 100 100 100 100 40 18 2 78 66 90 76 66 100
50 69 100 5 5 4 0 0 0 0 0 0 0 0 0 0 4 5 4 2 66 12 1 22 90 96 100 100 100 100 100 100 100 100 100 100 100 66 4 63 100 84 96 99
70 90 80 5 5 5 0 0 0 0 2 0 1 0 0 0 4 5 0 5 94 4 5 23 94 100 98 100 100 100 100 100 100 100 98 92 100 86 20 98 100 79 29 61
100 100 18 7 6 5 3 0 0 4 23 4 4 2 3 5 5 5 5 6 58 5 5 14 98 99 100 100 100 100 100 100 100 100 100 100 100 100 84 92 31 100 65 35
100 56 57 38 5 5 0 0 0 5 80 90 58 72 2 5 68 12 7 5 45 5 5 21 94 100 100 100 100 100 100 100 100 100 100 100 100 100 100 100 99 100 99 70
99 52 73 5 5 5 0 1 5 50 77 82 20 2 4 72 100 100 100 58 9 5 5 11 82 100 100 100 100 100 95 100 100 100 100 100 100 100 100 98 55 86 100 100
90 61 8 5 5 5 2 4 1 41 56 26 5 17 2 100 100 100 100 13 5 38 5 69 98 100 100 100 100 100 100 100 100 100 100 100 100 100 100 100 100 100 100 100
99 99 17 5 12 5 0 5 1 5 5 5 3 5 2 100 100 88 99 5 17 44 71 92 100 100 100 100 100 100 100 100 100 100 100 100 100 100 100 100 100 100 100 100
80 100 11 5 5 7 13 30 3 20 48 89 2 4 0 88 96 100 90 33 82 89 100 100 100 100 100 100 100 100 100 100 100 100 100 100 100 100 100 100 100 100 100 100
77 92 27 5 5 1 5 4 71 86 81 89 9 5 5 71 30 85 100 100 81 88 100 100 100 100 100 100 100 100 100 100 100 100 100 100 100 100 100 100 100 100 100 100
100 84 43 30 29 20 21 23 11 25 20 100 97 7 5 5 32 95 100 99 88 100 100 100 100 100 100 100 100 100 100 100 100 100 100 100 100 100 100 100 100 100 100 100
100 99 71 75 12 3 5 76 53 5 83 89 91 18 22 5 47 100 100 99 99 100 100 100 100 100 100 100 100 100 100 100 100 100 100 100 100 100 100 100 100 100 100 100
100 77 96 100 51 11 55 73 20 34 10 74 94 1 11 15 70 74 100 100 100 100 100 100 100 100 100 100 100 100 100 100 100 100 100 100 100 100 100 100 100 100 100 100
100 100 100 90 5 10 39 89 70 17 57 53 10 3 7 7 5 17 85 99 100 100 100 100 100 100 100 97 100 100 100 100 100 100 100 100 100 100 100 100 100 100 100 100
100 100 100 100 14 17 6 5 58 78 5 3 22 52 0 4 5 5 59 99 100 100 100 100 100 100 100 100 99 100 100 100 100 100 100 100 100 100 100 100 100 100 100 100
100 100 100 100 27 41 71 8 43 66 76 43 5 9 2 5 5 5 14 66 81 96 98 100 100 100 100 100 100 100 100 100 100 100 100 100 100 100 100 100 100 100 100 100
100 100 100 100 9 5 36 4 28 17 9 5 5 7 5 5 5 5 7 41 83 94 96 100 100 100 100 100 100 100 100 100 100 100 100 96 96 97 100 100 100 100 100 100
100 100 100 100 100 5 2 4 5 5 5 5 5 5 5 5 5 6 5 60 58 70 92 100 100 100 100 100 100 100 100 100 100 100 100 100 100 100 100 100 100 100 100 100
100 100 100 100 100 5 4 16 5 2 0 0 4 5 5 5 5 5 5 5 5 6 87 94 53 60 100 97 77 100 100 95 98 100 100 100 100 100 100 100 100 100 100 100
100 100 100 100 100 10 63 3 4 5 1 5 0 5 5 4 0 14 5 5 5 5 5 5 62 78 70 43 22 6 15 59 95 100 100 100 100 91 100 100 100 100 100 100
100 100 100 100 100 61 13 5 0 0 55 5 1 2 5 0 4 20 5 4 2 5 47 54 5 5 5 13 38 63 100 61 94 64 53 86 98 100 100 100 100 100 100 100
100 100 100 100 100 81 5 5 3 66 3 5 4 5 4 4 2 1 0 5 5 5 5 5 0 0 0 3 15 56 14 12 37 100 63 89 100 94 86 50 43 13 54 70
100 100 100 100 100 99 59 11 5 0 8 5 3 5 0 1 0 0 0 0 0 0 0 0 0 0 0 0 0 0 0 4 14 55 80 16 20 64 65 48 46 78 10 17
100 100 100 100 100 100 63 8 6 5 1 0 0 1 0 0 0 0 0 0 0 0 0 0 1 1 1 0 1 1 4 1 5 5 5 5 4 4 3 2 3 1 1 2
100 100 100 100 100 100 65 9 28 5 5 0 3 0 5 2 0 0 0 0 0 0 0 1 4 5 5 4 5 4 4 5 5 5 5 4 3 5 2 3 0 0 0 0
100 100 100 100 100 100 98 38 10 13 5 5 3 3 4 0 4 0 5 5 5 5 7 6 5 2 5 5 5 5 5 5 5 5 5 5 5 5 5 5 5 1 0 1

GFSCGP_prec_cloud_285.txt.gz
Cloud_Cover
100 100 100 100 100 100 96 5 5 5 3 0 0 0 0 0 0 0 0 0 0 0 0 0 0 0 0 0 0 5 5 5 8 96 97 100 95 100 43 27 27 0 29 97
100 100 100 99 100 100 88 22 22 5 5 0 0 0 0 0 0 0 0 0 0 0 1 5 5 0 0 0 0 5 5 6 11 100 44 89 100 100 95 17 15 0 14 100
100 100 100 100 100 100 89 5 5 5 5 4 0 1 3 0 0 0 0 0 0 0 5 5 5 1 0 0 4 5 5 19 10 69 86 61 99 100 100 68 90 68 22 30
100 100 100 100 100 100 100 77 5 22 5 4 0 5 0 0 0 0 0 5 0 3 5 5 5 0 1 4 5 5 9 21 52 12 100 100 100 100 100 100 100 100 100 39
100 100 100 100 100 100 99 86 28 57 5 58 5 41 1 0 0 0 0 3 4 8 5 5 4 5 5 1 5 5 5 18 20 85 61 100 100 100 100 100 100 100 100 100
100 100 100 100 100 100 100 44 8 18 81 87 5 6 0 0 0 0 0 5 5 5 1 0 0 0 2 5 5 9 100 100 100 100 28 83 100 100 100 100 100 100 100 100
100 100 100 100 100 100 100 46 40 19 59 13 5 9 0 0 1 1 4 3 5 5 0 4 0 5 5 5 5 82 99 100 100 100 100 100 96 97 100 100 100 100 100 100
100 100 100 100 100 100 100 85 88 2 5 8 4 5 0 4 5 5 5 27 5 5 5 5 5 5 5 5 67 79 98 100 100 100 100 100 100 100 100 100 100 100 100 100
100 100 100 100 100 100 100 100 48 3 59 73 5 0 0 0 4 5 5 5 5 5 5 5 5 21 44 17 41 100 100 99 100 100 100 100 100 100 100 100 100 100 100 100
100 100 100 100 100 100 100 100 5 32 40 36 5 5 5 4 0 4 5 5 5 5 5 25 5 5 5 19 73 99 100 100 100 100 100 100 100 100 100 100 100 100 100 100
100 100 100 100 100 100 100 92 4 5 5 57 98 2 0 5 5 0 5 5 5 5 62 80 62 5 5 9 19 96 97 91 100 100 100 100 100 100 100 100 100 100 100 100
100 100 100 100 100 100 100 10 5 5 3 59 83 20 5 4 5 5 5 5 5 8 34 100 89 6 11 54 53 77 100 100 100 100 100 100 100 100 100 100 100 100 100 100
100 100 100 100 100 100 100 5 5 5 18 66 42 1 5 34 5 5 27 23 22 5 5 14 24 87 80 69 82 84 82 100 100 100 78 100 100 100 100 100 100 100 100 100
100 100 100 100 100 100 72 61 5 5 91 16 9 3 6 5 5 5 5 20 6 24 5 57 19 74 98 99 96 82 85 86 96 100 99 99 100 100 100 100 100 100 100 100
100 100 100 100 100 100 77 44 9 5 4 11 0 64 0 0 5 5 5 47 38 8 8 59 70 83 80 96 79 78 76 83 99 95 100 100 100 100 100 100 100 100 100 100
100 100 100 100 100 100 96 5 5 6 13 5 1 4 2 35 62 18 5 61 54 40 54 87 88 83 87 85 96 89 75 73 76 78 100 100 100 100 100 100 100 100 100 100
100 100 100 100 100 100 98 29 6 30 39 6 42 0 20 4 20 25 32 26 8 55 79 91 99 100 99 99 100 100 98 72 87 88 88 100 100 100 100 100 100 100 100 100
100 100 100 100 100 100 99 26 6 35 5 5 5 36 5 2 11 30 25 5 11 57 81 87 77 62 87 82 87 100 100 100 100 100 100 100 100 100 100 100 100 100 100 100
100 100 100 100 100 100 100 17 41 78 1 0 0 4 5 46 9 5 5 6 5 5 5 8 12 7 79 70 18 66 56 98 100 100 100 100 100 100 100 100 100 100 100 100
100 100 100 100 100 100 100 43 100 86 3 2 1 3 44 2 0 5 28 6 5 5 7 25 5 13 67 14 5 7 16 96 100 100 100 100 100 100 100 100 100 100 99 100
100 100 100 100 100 100 100 72 100 100 9 63 5 4 5 0 2 47 5 33 8 5 5 7 60 10 32 30 5 5 34 56 66 23 52 35 5 12 5 16 26 55 84 100
100 100 100 100 100 100 100 100 100 100 40 5 13 5 5 5 57 22 5 5 5 5 6 5 5 6 5 5 5 5 4 5 5 5 5 5 7 5 14 5 27 43 8 28
100 100 100 100 100 100 100 100 100 100 53 5 5 5 2 2 9 5 5 5 5 5 5 5 5 5 5 5 5 5 5 5 5 5 5 6 25 5 5 5 5 19 35 5
100 100 100 100 100 100 100 100 100 100 100 87 5 5 4 0 5 1 1 6 5 5 1 3 5 5 5 5 5 1 5 5 5 5 5 44 5 5 5 12 5 6 10 28
100 100 100 100 100 90 100 100 100 100 100 100 9 5 5 5 2 61 7 2 8 11 6 5 5 5 2 5 5 5 5 5 5 5 7 5 5 7 5 5 5 10 5 5
100 100 100 100 100 100 100 100 100 100 100 100 76 9 20 5 5 8 53 5 5 5 3 5 5 5 5 5 5 5 5 5 5 5 5 5 5 5 5 5 5 5 5 5

GFSCGP_prec_cloud_291.txt.gz
Cloud_Cover
4 3 4 5 23 100 100 91 61 100 57 60 100 71 100 89 5 5 5 5 4 0 0 0 0 0 0 0 0 0 3 4 5 5 5 5 9 5 8 7 40 5 2 13
4 5 5 5 7 98 100 85 89 100 74 10 100 80 100 25 0 5 5 2 0 0 0 0 0 0 0 0 0 0 4 5 5 5 5 52 5 43 5 5 6 74 100 100
5 5 5 5 5 11 78 86 100 54 92 42 58 5 100 28 5 5 22 5 0 0 0 0 0 0 0 0 0 0 5 5 5 5 54 6 10 5 5 6 99 18 92 100
5 5 3 5 5 11 17 73 86 90 91 100 100 3 100 99 100 74 8 0 0 0 0 0 0 0 0 0 4 5 5 5 5 6 6 45 78 71 5 56 100 92 100 100
4 5 5 5 5 5 61 100 35 100 100 100 100 77 100 100 17 5 0 0 0 0 4 1 5 0 2 5 5 5 5 5 5 5 5 72 100 94 84 100 100 100 100 100
10 73 20 7 45 25 75 100 100 100 100 100 100 100 100 16 5 5 0 0 0 0 1 0 1 1 5 5 4 5 5 5 5 5 5 63 100 100 100 100 100 100 100 100
5 33 77 92 93 100 99 100 95 100 100 100 100 100 8 11 5 2 0 0 5 5 4 0 0 5 5 4 5 5 5 5 5 5 6 32 93 100 100 100 100 100 100 99
86 31 88 98 100 100 99 99 100 99 100 100 100 89 70 5 5 5 5 5 5 5 1 2 5 5 5 5 5 5 26 94 5 5 30 24 72 97 100 100 100 100 100 69
90 38 94 81 100 100 100 100 100 100 99 100 100 94 5 0 4 5 2 0 5 5 5 5 5 5 5 5 5 5 72 75 10 5 86 29 79 76 94 75 78 91 100 94
96 87 100 100 100 100 100 100 100 100 100 100 100 46 5 0 0 2 0 2 4 5 5 5 5 5 5 5 5 5 5 68 64 42 45 91 52 80 82 96 91 78 99 100
100 99 100 100 100 100 100 100 100 99 53 88 92 5 1 0 0 0 0 2 5 5 5 7 5 5 5 5 5 30 54 88 60 58 75 75 78 86 92 99 100 100 100 100
100 100 100 100 100 100 100 100 100 100 84 97 28 17 5 4 5 5 3 5 5 5 26 5 5 5 5 41 44 79 72 89 78 76 76 77 74 79 99 100 100 100 100 100
100 100 100 100 100 100 100 100 100 98 93 78 19 2 5 47 17 5 5 5 17 8 5 5 5 6 52 69 84 97 80 90 82 85 69 62 84 85 90 80 100 100 100 100
100 100 100 100 100 100 100 100 81 100 100 43 10 1 0 0 3 1 5 5 5 24 25 26 10 5 55 85 100 97 86 84 76 61 64 78 92 88 93 80 88 100 100 100
100 100 100 100 100 100 100 100 95 98 94 64 6 4 0 0 0 4 17 7 10 5 5 25 55 63 76 88 98 91 74 87 90 62 65 95 99 100 89 94 100 100 100 100
100 100 100 100 100 100 100 100 97 100 99 82 11 1 2 37 60 25 5 5 5 5 5 5 51 65 87 99 100 91 81 85 94 100 88 72 68 100 100 100 99 100 100 100
100 100 100 100 100 100 100 100 100 100 100 94 52 0 19 2 5 5 3 16 5 5 5 5 5 22 83 97 62 71 89 70 81 86 92 97 100 100 100 100 100 100 100 100
100 100 100 100 100 100 100 100 100 100 100 100 16 2 0 2 5 5 5 5 5 5 5 5 5 13 66 76 82 75 31 58 73 68 66 88 100 100 100 100 100 100 100 100
100 100 100 100 100 100 100 100 100 100 100 100 82 0 5 14 26 1 5 5 5 5 5 5 5 5 30 63 11 65 42 42 34 44 57 26 88 100 100 100 100 100 100 100
100 100 100 100 100 100 100 100 100 100 100 100 100 4 5 1 0 4 5 21 5 6 6 5 5 6 55 14 17 5 6 17 38 12 5 27 5 7 62 76 96 100 100 100
99 100 100 100 100 100 100 100 83 88 100 100 100 54 5 1 0 2 64 5 5 6 30 15 23 17 5 13 49 34 6 15 5 5 5 5 5 5 5 5 33 59 66 39
91 100 100 100 100 100 100 100 100 100 100 100 100 100 5 3 1 5 5 5 5 5 8 14 5 57 46 17 5 5 5 3 5 5 5 5 5 5 17 17 57 50 39 57
79 73 100 100 100 100 100 100 100 100 100 100 100 100 83 2 3 0 0 5 5 5 5 11 77 100 100 83 56 17 6 5 5 16 5 5 46 17 8 43 47 55 55 59
5 24 73 100 100 100 100 100 100 100 100 100 100 100 100 5 2 0 1 4 5 5 5 5 5 74 100 100 70 93 100 90 52 21 5 5 50 7 46 16 5 22 56 43
13 29 96 100 100 100 100 100 99 100 100 100 100 100 100 97 5 4 1 0 0 2 5 5 5 71 87 46 88 14 5 57 57 53 8 5 5 5 5 7 5 5 5 5
70 100 99 100 100 100 95 100 98 100 100 100 100 100 100 100 29 13 5 4 2 5 5 5 5 5 5 5 5 5 5 24 15 20 13 5 5 5 6 8 5 5 5 5